This demonstration page uses our WeatherBlox Daily Observations layout. Learn more.

Left ArrowRight Arrow

41.12389, -100.76542

Hourly Observations for September 12, 2017

Temp ( °F °C ) Dew Point ( °F °C ) Humidity (%) Winds ( mph kmh ) Pressure ( in mb ) Visibility ( mi km ) Precip ( " mm )
12:53 am 00:53 Clear 64 17.8 58 14.4 81 81 E 7 11 30.02 1017 10 16 0.00 0.00
1:53 am 01:53 Clear 70 21.1 55 12.8 59 59 SSE 8 13 29.99 1016 10 16 0.00 0.00
2:53 am 02:53 Clear 71 21.7 54 12.2 55 55 S 9 15 29.98 1015 10 16 0.00 0.00
3:53 am 03:53 Clear 67 19.4 54 12.2 63 63 SE 7 11 29.97 1015 10 16 0.00 0.00
4:53 am 04:53 Clear 61 16.1 55 12.8 81 81 E 6 9 29.97 1015 10 16 0.00 0.00
5:53 am 05:53 Clear 59 15 55 12.8 87 87 Calm 29.98 1015 10 16 0.00 0.00
6:53 am 06:53 Clear 57 13.9 54 12.2 90 90 Calm 29.98 1015 10 16 0.00 0.00
7:53 am 07:53 Sunny 57 13.9 53 11.7 87 87 Calm 29.99 1016 10 16 0.00 0.00
8:53 am 08:53 Sunny 64 17.8 56 13.3 75 75 Calm 29.98 1015 10 16 0.00 0.00
9:53 am 09:53 Sunny 70 21.1 57 13.9 64 64 SE 5 7 29.98 1015 10 16 0.00 0.00
10:53 am 10:53 Sunny 75 23.9 59 15 58 58 SSE 3 6 29.96 1015 10 16 0.00 0.00
11:53 am 11:53 Sunny 83 28.3 59 15 44 44 S 9 15 29.94 1014 10 16 0.00 0.00
12:53 pm 12:53 Sunny 86 30 58 14.4 39 39 SSW 10 17 29.92 1013 10 16 0.00 0.00
1:53 pm 13:53 Sunny 90 32.2 57 13.9 33 33 S 13 20 29.88 1012 10 16 0.00 0.00
2:53 pm 14:53 Sunny 91 32.8 56 13.3 31 31 S 14 22 29.85 1011 10 16 0.00 0.00
3:53 pm 15:53 Sunny 92 33.3 57 13.9 31 31 S 12 19 29.82 1010 10 16 0.00 0.00
4:53 pm 16:53 Sunny 92 33.3 57 13.9 31 31 S 12 19 29.81 1009 10 16 0.00 0.00
5:53 pm 17:53 Sunny 87 30.6 58 14.4 37 37 S 6 9 29.81 1010 10 16 0.00 0.00
6:53 pm 18:53 Sunny 86 30 62 16.7 45 45 SSE 6 9 29.80 1009 10 16 0.00 0.00
7:53 pm 19:53 Sunny 80 26.7 58 14.4 47 47 SE 8 13 29.80 1009 10 16 0.00 0.00
8:53 pm 20:53 Clear 70 21.1 59 15 68 68 ESE 7 11 29.82 1010 10 16 0.00 0.00
9:53 pm 21:53 Clear 69 20.6 58 14.4 68 68 E 9 15 29.82 1010 10 16 0.00 0.00
10:53 pm 22:53 Clear 68 20 57 13.9 68 68 ESE 8 13 29.81 1010 10 16 0.00 0.00
11:53 pm 23:53 Clear 69 20.6 57 13.9 66 66 E 6 9 29.81 1010 10 16 0.00 0.00

Powered by AerisWeather